Weather History for KORL - May, 2013

Change the Weather History Date:

Sunday, May 26, 2013

  Actual Average Record
Temperature  
Mean Temperature 74 °F -  
Max Temperature 84 °F 87 °F 97 °F (2000)
Min Temperature 63 °F 68 °F 63 °F (2013)
Cooling Degree Days 8    
Growing Degree Days 24 (Base 50)    
Moisture  
Dew Point 58 °F    
Average Humidity 61    
Maximum Humidity 84    
Minimum Humidity 37    
Precipitation  
Precipitation 0.00 in - - ()
Sea Level Pressure  
Sea Level Pressure 30.21 in    
Wind  
Wind Speed 5 mph (ENE)    
Max Wind Speed 13 mph    
Max Gust Speed 17 mph    
Visibility 10 miles    
Events      
Averages and records for this station are not official NWS values.
T = Trace of Precipitation, MM = Missing Value Source: NWS Daily Summary

Daily Weather History Graph

Daily Weather History Graph

Search for Another Location

Airport or City:

Trip Planner

Search our weather history database for the weather conditions in past years. The results will help you decide how hot, cold, wet, or windy it might be!

Date:

Astronomy

May. 26, 2013 Rise Set
Actual Time 6:29 AM EDT 8:15 PM EDT
Civil Twilight 6:03 AM EDT 8:41 PM EDT
Nautical Twilight 5:31 AM EDT 9:13 PM EDT
Astronomical Twilight 4:58 AM EDT 9:46 PM EDT
Moon 10:03 PM EDT (5/26) 7:56 AM EDT (5/26)
Length of Visible Light 14h 38m
Length of Day
13h 46m
Waning Gibbous, 97% of the Moon is Illuminated
May 26
Waning Gibbous
May 31
Last Quarter
Jun 8
New
Jun 16
First Quarter
Jun 23
Full

Hourly Weather History & Observations

Time (EDT) Temp. Heat Index Dew Point Humidity Pressure Visibility Wind Dir Wind Speed Gust Speed Precip Events Conditions
12:53 AM 68.0 °F - 57.0 °F 68% 30.22 in 10.0 mi NE 5.8 mph - N/A   Clear
1:53 AM 66.0 °F - 57.0 °F 73% 30.21 in 10.0 mi Calm Calm - N/A   Clear
2:53 AM 64.0 °F - 57.9 °F 80% 30.19 in 10.0 mi Calm Calm - N/A   Clear
3:53 AM 64.0 °F - 57.9 °F 80% 30.19 in 10.0 mi Calm Calm - N/A   Clear
4:53 AM 64.0 °F - 57.9 °F 80% 30.18 in 10.0 mi Calm Calm - N/A   Clear
5:53 AM 63.0 °F - 57.9 °F 84% 30.19 in 10.0 mi Calm Calm - N/A   Clear
6:53 AM 64.9 °F - 57.9 °F 78% 30.22 in 10.0 mi Calm Calm - N/A   Clear
7:53 AM 70.0 °F - 60.1 °F 71% 30.22 in 10.0 mi NE 3.5 mph - N/A   Clear
8:53 AM 73.9 °F - 59.0 °F 59% 30.24 in 10.0 mi NE 5.8 mph - N/A   Clear
9:53 AM 75.0 °F - 57.9 °F 55% 30.25 in 10.0 mi East 5.8 mph - N/A   Clear
10:53 AM 78.1 °F - 57.9 °F 50% 30.25 in 10.0 mi ENE 6.9 mph - N/A   Clear
11:53 AM 79.0 °F - 57.0 °F 47% 30.24 in 10.0 mi East 5.8 mph - N/A   Clear
12:53 PM 82.0 °F 81.7 °F 57.0 °F 42% 30.23 in 10.0 mi ENE 4.6 mph - N/A   Clear
1:53 PM 82.9 °F 81.9 °F 54.0 °F 37% 30.22 in 10.0 mi ENE 5.8 mph - N/A   Clear
2:53 PM 84.0 °F 83.0 °F 55.9 °F 38% 30.21 in 10.0 mi East 12.7 mph 17.3 mph N/A   Clear
3:53 PM 82.9 °F 82.4 °F 57.0 °F 41% 30.19 in 10.0 mi Variable 5.8 mph 16.1 mph N/A   Clear
4:53 PM 81.0 °F 81.0 °F 57.0 °F 44% 30.18 in 10.0 mi ENE 11.5 mph - N/A   Clear
5:53 PM 79.0 °F - 57.9 °F 48% 30.17 in 10.0 mi East 10.4 mph - N/A   Clear
6:53 PM 77.0 °F - 57.9 °F 52% 30.18 in 10.0 mi ENE 12.7 mph - N/A   Clear
7:53 PM 75.0 °F - 57.9 °F 55% 30.19 in 10.0 mi ENE 11.5 mph - N/A   Clear
8:53 PM 73.0 °F - 59.0 °F 61% 30.19 in 10.0 mi East 10.4 mph - N/A   Clear
9:53 PM 71.1 °F - 60.1 °F 68% 30.20 in 10.0 mi ENE 6.9 mph - N/A   Clear
10:53 PM 70.0 °F - 60.1 °F 71% 30.21 in 10.0 mi ENE 5.8 mph - N/A   Clear
11:53 PM 69.1 °F - 61.0 °F 75% 30.22 in 10.0 mi NE 4.6 mph - N/A   Clear